Regional Weather Roundup
Issued by NWS

Home | Current Version | Previous Version | Graphics & Text | Print | Product List | Glossary Off
Versions: 1 2 3 4 5 6 7 8 9 10 11 12 13 14 15 16 17 18 19 20 21 22 23 24 25 26 27 28 29 30 31 32 33 34 35 36 37 38 39 40 41 42 43 44 45 46 47 48 49 50

000
ASUS43 KTOP 241008
RWRKS

WEATHER ROUNDUP FOR KANSAS
NATIONAL WEATHER SERVICE GOODLAND KS
500 AM CDT THU JUL 24 2014

NOTE:  "FAIR" INDICATES FEW OR NO CLOUDS BELOW 12,000 FEET WITH NO
SIGNIFICANT WEATHER AND/OR OBSTRUCTIONS TO VISIBILITY.

KSZ001>006-013>018-027>032-041>047-241100-
NORTHWEST KANSAS

CITY           SKY/WX    TMP DP  RH WIND       PRES   REMARKS
GOODLAND       CLEAR     68  66  93 S14       30.12F
HAYS           CLEAR     66  57  72 E3        30.10F
HILL CITY      CLEAR     66  62  87 E5        30.10F
RUSSELL        CLEAR     66  61  84 SE8       30.09F
$$

KSZ061>065-074>080-084>089-241100-
SOUTHWEST KANSAS

CITY           SKY/WX    TMP DP  RH WIND       PRES   REMARKS
DODGE CITY     CLEAR     70  64  81 S10       30.12F
ELKHART          N/A     72  59  64 SW8         N/A
GARDEN CITY    CLEAR     69  64  84 SE9       30.12F
GREAT BEND     CLEAR     66  63  88 SE6       30.10S
LIBERAL        CLEAR     72  66  83 SE6       30.14F
PRATT          CLEAR     68  64  88 CALM      30.12F
$$

KSZ066>073-081>083-090>101-241100-
SOUTHEAST KANSAS

CITY           SKY/WX    TMP DP  RH WIND       PRES   REMARKS
CHANUTE        PTCLDY    68  64  87 NE7       30.09R
COFFEYVILLE    CLEAR     68  66  93 N6        30.07R
HUTCHINSON     CLEAR     68  62  81 CALM      30.10S
MEDICINE LODGE   N/A     69  66  90 NE3       30.09F
NEWTON         CLEAR     66  59  77 E5        30.13F
PARSONS        CLEAR     69  64  84 VRB3      30.09R
WICHITA INTL   PTCLDY    70  65  84 SE6       30.09S
WICHITA JABRA  CLEAR     66  64  93 E3        30.09S
WICHITA MCCONL CLEAR     70  68  94 E5        30.09S
WINFIELD       CLEAR     70  67  90 E6        30.09F
$$

KSZ007>012-019>026-033>040-048>060-102>105-241100-
NORTHEAST KANSAS

CITY           SKY/WX    TMP DP  RH WIND       PRES   REMARKS
CONCORDIA      CLEAR     65  64  97 SE7       30.10S
EMPORIA        CLEAR     66  63  90 E8        30.10F
LAWRENCE       CLEAR     66  61  84 SE3       30.12R
MANHATTAN      CLEAR     65  62  90 NE3       30.10S
MARYSVILLE     CLEAR     64  61  88 E7        30.12R
OLATHE IND     CLEAR     67  61  81 E7        30.13R
OLATHE EXE     CLEAR     66  60  81 E7        30.12R
SALINA         CLEAR     69  62  78 SE3       30.10S
TOPEKA BILLARD CLEAR     68  63  84 E5        30.12R
TOPEKA FORBES  CLEAR     66  61  84 CALM      30.12R
$$


USA.gov is the U.S. government's official web portal to all federal, state and local government web resources and services.